Regional Weather Roundup
Issued by NWS

Home | Current Version | Previous Version | Text Only | Print | Product List | Glossary On
Versions: 1 2 3 4 5 6 7 8 9 10 11 12 13 14 15 16 17 18 19 20 21 22 23 24 25 26 27 28 29 30 31 32 33 34 35 36 37 38 39 40 41 42 43 44 45 46 47 48 49 50
000
ASUS43 KLSX 140907
RWRMO

WEATHER SUMMARY FOR MISSOURI
NATIONAL WEATHER SERVICE SPRINGFIELD MO
300 AM CST SUN FEB 14 2016

NOTE: "FAIR" INDICATES FEW OR NO CLOUDS BELOW 12,000 FEET WITH NO
       SIGNIFICANT WEATHER AND/OR OBSTRUCTIONS TO VISIBILITY.
       CURRENT SKY AND/OR WEATHER CONDITIONS ARE NOT AVAILABLE FOR
       CHILLICOTHE AND FARMINGTON.

MOZ001>031-035>038-043-044-053-054-141000-
...NORTHERN AND WESTERN MISSOURI...

CITY           SKY/WX    TMP DP  RH WIND       PRES   REMARKS
KANSAS CTY INT CLOUDY    23   6  48 E10       30.09F WCI  12
KANSAS C DTWN  CLOUDY    26   6  42 E8        30.10F WCI  18
LEE`S SUMMIT   CLOUDY    24   6  46 E9        30.10F WCI  14
ST JOSEPH      CLOUDY    23   4  44 SE13      30.12F WCI  11
CHILLICOTHE      N/A     23   6  48 E10       30.18F WCI  12
KIRKSVILLE     CLOUDY    19   7  59 SE15      30.21F WCI   5

$$
MOZ066>068-077>081-088>096-101>105-141000-
...SOUTHWEST MISSOURI...

CITY           SKY/WX    TMP DP  RH WIND       PRES   REMARKS
SPRINGFIELD    CLOUDY    27   7  42 SE22      30.08F WCI  13
JOPLIN         CLOUDY    36  11  35 SE14      30.02F WCI  27

$$
MOZ032>034-039>042-045>050-055>058-069>072-141000-
...CENTRAL MISSOURI...

CITY           SKY/WX    TMP DP  RH WIND       PRES   REMARKS
COLUMBIA       CLOUDY    23   5  46 SE16      30.18F WCI  10
JEFFERSON CITY CLOUDY    24   5  44 E18G25    30.22F WCI  10
ROLLA          CLOUDY    23   4  44 E18       30.18F WCI   9
SEDALIA        CLOUDY    27   4  37 SE13      30.14F WCI  16
WHITEMAN AFB   CLOUDY    26   5  40 SE10      30.11F WCI  16
WARRENSBURG    CLOUDY    27   5  39 E12       30.11F WCI  16
OSAGE BEACH    CLOUDY    27   1  33 SE9       30.18F WCI  17

$$
MOZ051-052-059>065-141000-
...EAST CENTRAL MISSOURI...

CITY           SKY/WX    TMP DP  RH WIND       PRES   REMARKS
ST LOUIS INTL  CLOUDY    24   7  48 SE14      30.34F WCI  12
SPIRIT OF STL  CLOUDY    23   9  55 E9        30.32F WCI  13
ST CHARLES     CLOUDY    22  11  62 E13       30.34F WCI  10

$$
MOZ072>076-082>087-097>100-106>115-141000-
...SOUTH CENTRAL AND SOUTHEAST MISSOURI...

CITY           SKY/WX    TMP DP  RH WIND       PRES   REMARKS
CAPE GIRARDEAU CLOUDY    25  10  53 E9        30.36F WCI  15
FARMINGTON     CLOUDY    23   9  55 E10       30.30F WCI  12
POPLAR BLUFF   CLOUDY    28   9  44 E10       30.31F WCI  19
WEST PLAINS    MIX PCPN  23  11  60 SE12      30.21F WCI  12

$$


USA.gov is the U.S. government's official web portal to all federal, state and local government web resources and services.